This is the latest recevied weather packets stored in our database for station/object KB9ZI. If no packets are shown the sender has not sent any weather packets the latest 10 day(s).
| Time | Temp. | Humidity | Pressure | Rain* | Wind** | Luminosity | Snow |
|---|---|---|---|---|---|---|---|
| 1777485528 | 13.33° C | 50% | 1018 hPa | 0 mm | - | - | - |
| 1777485402 | 12.78° C | 49% | 1017.9 hPa | 0 mm | - | - | - |
| 1777485342 | 12.78° C | 48% | 1018 hPa | 0 mm | - | - | - |
| 1777485162 | 12.78° C | 47% | 1017.9 hPa | 0 mm | - | - | - |
| 1777485043 | 12.78° C | 45% | 1018.1 hPa | 0 mm | - | - | - |
| 1777484928 | 13.33° C | 45% | 1018.2 hPa | 0 mm | - | - | - |
| 1777484802 | 12.78° C | 51% | 1018.1 hPa | 0 mm | - | - | - |
| 1777484684 | 11.67° C | 50% | 1018.1 hPa | 0 mm | - | - | - |
| 1777484563 | 11.11° C | 49% | 1018.1 hPa | 0 mm | - | - | - |
| 1777484514 | 11.11° C | 48% | 1018.3 hPa | 0 mm | - | - | - |
| 1777484491 | 11.11° C | 51% | 1018.2 hPa | 0 mm | - | - | - |
| 1777484203 | 11.67° C | 47% | 1018.3 hPa | 0 mm | - | - | - |
| 1777484085 | 11.67° C | 49% | 1018.2 hPa | 0 mm | - | - | - |
| 1777483962 | 11.67° C | 47% | 1018.1 hPa | 0 mm | - | - | - |
| 1777483844 | 12.22° C | 48% | 1018.3 hPa | 0 mm | - | - | - |
| 1777483728 | 12.22° C | 48% | 1018.3 hPa | 0 mm | - | - | - |
| 1777483603 | 12.22° C | 47% | 1018.3 hPa | 0 mm | - | - | - |
| 1777483545 | 12.22° C | 50% | 1018.3 hPa | 0 mm | - | - | - |
| 1777483362 | 11.11° C | 50% | 1018.3 hPa | 0 mm | - | - | - |
| 1777483237 | 11.11° C | 48% | 1018.3 hPa | 0 mm | - | - | - |
| 1777483120 | 11.11° C | 48% | 1018.3 hPa | 0 mm | - | - | - |
| 1777482996 | 11.67° C | 50% | 1018.4 hPa | 0 mm | - | - | - |
| 1777482877 | 12.22° C | 51% | 1018.3 hPa | 0 mm | - | - | - |
| 1777482756 | 12.22° C | 49% | 1018.3 hPa | 0 mm | - | - | - |
| 1777482635 | 12.22° C | 48% | 1018.3 hPa | 0 mm | - | - | - |
* Rain latest hour (hover to see other rain measurements)
** Current wind speed in m/s (hover to see current wind gust speed)